WXM80 ListenWXM80 Stop

You find our weather info also at:

UK Metoffice

WeatherCloud

Weather Underground

Northeastern Weather Network

AWEKAS

Citizen Weather Observer Program (CWOP)

HAMweather, WeatherForYou, PWS Weather


Weather Underground History page Text

Daily Summary for January 4, 2018 Units:  English    Metric   Both
« Previous Day
Next Day »
Daily Weekly Monthly Yearly Custom
  High: Low: Average:
Temperature: 29.9 °F 19.8 °F 25.6 °F
Dew Point: 26.3 °F 17.9 °F 23.4 °F
Humidity: 96 % 70 % 92 %
Wind Speed: 22.8 mph 2.3 mph 10.8 mph
Wind Gust: 35.0 mph - -
Wind:- - South
Pressure: 30.01 in 28.93 in -
Precipitation: 0.54 in    
Historical Graphs
 
 
Tabular Data for January 4, 2018
Time Temperature Dew Point Pressure Wind Wind Speed Wind Gust Humidity Rainfall Rate (Hourly)
00:00 28.5 °F 23.7 °F 30.01 in NE 2.3 mph 4.6 mph 82 % 0.00 in
00:05 28.7 °F 23.6 °F 30.01 in NNE 2.6 mph 5.0 mph 81 % 0.00 in
00:06 28.7 °F 23.6 °F 30.01 in NNE 3.5 mph 4.6 mph 81 % 0.00 in
00:12 29.1 °F 24.0 °F 30.00 in NNE 3.2 mph 8.1 mph 81 % 0.00 in
00:17 29.2 °F 23.8 °F 30.00 in NNE 2.6 mph 6.0 mph 80 % 0.00 in
00:19 29.3 °F 23.9 °F 30.00 in NNE 3.7 mph 8.1 mph 80 % 0.00 in
00:24 29.4 °F 24.0 °F 29.99 in NE 4.2 mph 8.0 mph 80 % 0.00 in
00:29 29.6 °F 23.9 °F 29.98 in NE 3.3 mph 9.2 mph 79 % 0.00 in
00:35 29.7 °F 24.0 °F 29.73 in NNE 4.0 mph 6.9 mph 79 % 0.00 in
00:37 29.7 °F 24.0 °F 29.97 in NNE 3.1 mph 6.9 mph 79 % 0.00 in
00:41 29.8 °F 24.1 °F 29.97 in NE 4.0 mph 5.8 mph 79 % 0.00 in
00:42 29.8 °F 24.1 °F 29.97 in NNE 6.2 mph 10.4 mph 79 % 0.00 in
00:47 29.8 °F 24.1 °F 29.96 in NNE 3.8 mph 8.1 mph 79 % 0.00 in
00:53 29.9 °F 23.9 °F 29.96 in ENE 5.3 mph 8.1 mph 78 % 0.00 in
00:56 29.9 °F 23.9 °F 29.95 in NE 5.0 mph 9.0 mph 78 % 0.00 in
00:58 29.9 °F 23.9 °F 29.95 in NNE 4.9 mph 9.2 mph 78 % 0.00 in
01:01 29.9 °F 23.9 °F 29.95 in NE 6.4 mph 8.1 mph 78 % 0.00 in
01:04 29.9 °F 23.9 °F 29.95 in North 5.1 mph 8.1 mph 78 % 0.00 in
01:07 29.8 °F 23.5 °F 29.95 in NNE 6.2 mph 9.2 mph 77 % 0.00 in
01:12 29.8 °F 23.5 °F 29.94 in NNE 5.8 mph 12.0 mph 77 % 0.00 in
01:18 29.7 °F 23.4 °F 29.94 in NNE 6.7 mph 12.7 mph 77 % 0.00 in
01:19 29.7 °F 23.4 °F 29.94 in NE 5.7 mph 12.0 mph 77 % 0.00 in
01:24 29.7 °F 23.4 °F 29.93 in NNE 5.8 mph 11.5 mph 77 % 0.00 in
01:26 29.7 °F 23.4 °F 29.93 in North 4.2 mph 8.1 mph 77 % 0.00 in
01:28 29.8 °F 23.5 °F 29.68 in NNE 5.5 mph 8.1 mph 77 % 0.00 in
01:32 29.8 °F 23.5 °F 29.92 in NE 5.0 mph 5.0 mph 77 % 0.00 in
01:34 29.7 °F 23.4 °F 29.68 in NE 5.0 mph 5.0 mph 77 % 0.00 in
01:39 29.7 °F 23.4 °F 29.92 in NNE 10.4 mph 12.7 mph 77 % 0.00 in
01:44 29.6 °F 23.0 °F 29.92 in NNE 9.2 mph 11.5 mph 76 % 0.00 in
01:45 29.6 °F 23.0 °F 29.92 in NE 7.9 mph 11.5 mph 76 % 0.00 in
01:46 29.6 °F 23.0 °F 29.67 in NNE 8.0 mph 12.0 mph 76 % 0.00 in
01:47 29.6 °F 23.0 °F 29.67 in NNE 9.4 mph 13.8 mph 76 % 0.00 in
01:48 29.6 °F 23.0 °F 29.92 in NNE 7.8 mph 11.5 mph 76 % 0.00 in
01:53 29.5 °F 22.6 °F 29.91 in ENE 8.9 mph 15.0 mph 75 % 0.00 in
01:54 29.6 °F 22.6 °F 29.91 in North 9.2 mph 15.0 mph 75 % 0.00 in
01:59 29.5 °F 22.2 °F 29.91 in NNE 6.7 mph 11.5 mph 74 % 0.00 in
02:00 29.5 °F 22.2 °F 29.91 in NNE 6.7 mph 11.5 mph 74 % 0.00 in
02:05 29.5 °F 21.9 °F 29.90 in North 8.2 mph 13.8 mph 73 % 0.00 in
02:06 29.5 °F 21.9 °F 29.90 in NE 7.8 mph 13.8 mph 73 % 0.00 in
02:11 29.5 °F 21.9 °F 29.89 in NE 6.3 mph 9.0 mph 73 % 0.00 in
02:14 29.5 °F 21.9 °F 29.64 in North 6.8 mph 11.5 mph 73 % 0.00 in
02:15 29.5 °F 21.9 °F 29.89 in NE 5.5 mph 11.5 mph 73 % 0.00 in
02:20 29.5 °F 21.6 °F 29.88 in NNE 9.2 mph 15.0 mph 72 % 0.00 in
02:21 29.5 °F 21.3 °F 29.88 in NE 8.6 mph 12.7 mph 71 % 0.00 in
02:25 29.6 °F 21.0 °F 29.88 in NNE 6.6 mph 11.5 mph 70 % 0.00 in
02:31 29.6 °F 21.3 °F 29.87 in NNE 9.5 mph 17.0 mph 71 % 0.00 in
02:35 29.6 °F 21.7 °F 29.87 in North 7.7 mph 11.5 mph 72 % 0.00 in
02:39 29.6 °F 22.0 °F 29.63 in NNE 6.4 mph 18.4 mph 73 % 0.00 in
02:45 29.5 °F 22.2 °F 29.86 in NNE 6.9 mph 11.5 mph 74 % 0.00 in
02:47 29.4 °F 22.5 °F 29.86 in NNE 11.1 mph 14.0 mph 75 % 0.00 in
02:52 29.3 °F 22.7 °F 29.85 in NNE 7.6 mph 17.3 mph 76 % 0.00 in
02:55 29.2 °F 22.9 °F 29.85 in NNE 9.2 mph 16.0 mph 77 % 0.00 in
03:00 29.0 °F 23.0 °F 29.84 in NNE 11.4 mph 16.1 mph 78 % 0.00 in
03:05 28.7 °F 23.3 °F 29.59 in NE 7.4 mph 16.1 mph 80 % 0.00 in
03:09 28.4 °F 23.6 °F 29.83 in NNE 9.3 mph 13.8 mph 82 % 0.00 in
03:11 28.4 °F 23.6 °F 29.83 in North 9.1 mph 12.7 mph 82 % 0.00 in
03:13 28.3 °F 23.8 °F 29.57 in NNE 9.7 mph 13.8 mph 83 % 0.00 in
03:18 28.0 °F 24.1 °F 29.82 in NNE 7.6 mph 13.0 mph 85 % 0.00 in
03:20 27.9 °F 24.0 °F 29.81 in NNE 10.5 mph 16.1 mph 85 % 0.00 in
03:25 27.6 °F 24.0 °F 29.81 in NE 11.3 mph 17.3 mph 86 % 0.00 in
03:30 27.4 °F 24.0 °F 29.80 in NNE 10.7 mph 15.0 mph 87 % 0.00 in
03:31 27.4 °F 24.0 °F 29.80 in NNE 12.3 mph 18.0 mph 87 % 0.00 in
03:36 27.2 °F 23.8 °F 29.79 in NNE 11.2 mph 19.6 mph 87 % 0.00 in
03:43 26.9 °F 23.8 °F 29.78 in North 10.4 mph 18.4 mph 88 % 0.00 in
03:48 26.7 °F 23.6 °F 29.76 in NE 9.6 mph 17.3 mph 88 % 0.00 in
03:51 26.7 °F 23.9 °F 29.76 in NNE 8.0 mph 11.5 mph 89 % 0.00 in
03:56 26.4 °F 23.6 °F 29.76 in North 10.5 mph 18.4 mph 89 % 0.00 in
03:59 26.3 °F 23.5 °F 29.76 in North 11.3 mph 18.4 mph 89 % 0.00 in
04:01 26.2 °F 23.4 °F 29.75 in NNE 10.7 mph 15.0 mph 89 % 0.00 in
04:06 26.0 °F 23.5 °F 29.75 in NNE 9.4 mph 15.0 mph 90 % 0.00 in
04:10 25.9 °F 23.4 °F 29.73 in NNE 11.8 mph 16.0 mph 90 % 0.00 in
04:15 25.9 °F 23.4 °F 29.73 in North 11.0 mph 15.0 mph 90 % 0.00 in
04:16 25.8 °F 23.3 °F 29.72 in NE 7.9 mph 13.8 mph 90 % 0.00 in
04:21 25.8 °F 23.5 °F 29.72 in NNE 10.1 mph 12.7 mph 91 % 0.00 in
04:26 25.7 °F 23.2 °F 29.71 in NNE 9.9 mph 15.0 mph 90 % 0.00 in
04:30 25.6 °F 23.3 °F 29.71 in NNE 9.8 mph 17.3 mph 91 % 0.00 in
04:32 25.6 °F 23.3 °F 29.71 in NNE 10.5 mph 13.0 mph 91 % 0.00 in
04:37 25.6 °F 23.3 °F 29.70 in NNE 11.3 mph 18.4 mph 91 % 0.00 in
04:42 25.5 °F 23.2 °F 29.69 in North 9.5 mph 12.7 mph 91 % 0.00 in
04:43 25.6 °F 23.3 °F 29.69 in North 10.9 mph 14.0 mph 91 % 0.00 in
04:48 25.6 °F 23.6 °F 29.69 in NNE 9.6 mph 13.8 mph 92 % 0.00 in
04:52 25.7 °F 23.7 °F 29.68 in North 11.9 mph 17.0 mph 92 % 0.00 in
04:56 25.7 °F 23.7 °F 29.68 in NNE 11.3 mph 17.3 mph 92 % 0.01 in
04:57 25.7 °F 23.7 °F 29.68 in North 10.7 mph 17.3 mph 92 % 0.01 in
05:02 25.8 °F 23.8 °F 29.67 in NNE 8.5 mph 13.8 mph 92 % 0.01 in
05:07 25.8 °F 23.8 °F 29.67 in NNE 11.0 mph 16.1 mph 92 % 0.01 in
05:12 25.9 °F 23.9 °F 29.66 in NNE 8.0 mph 16.1 mph 92 % 0.01 in
05:17 26.0 °F 24.0 °F 29.66 in NNE 6.3 mph 10.0 mph 92 % 0.01 in
05:22 26.0 °F 24.3 °F 29.65 in ENE 5.6 mph 12.7 mph 93 % 0.01 in
05:27 26.0 °F 24.3 °F 29.65 in NNW 10.6 mph 13.8 mph 93 % 0.02 in
05:28 26.0 °F 24.3 °F 29.64 in North 6.0 mph 8.1 mph 93 % 0.02 in
05:33 26.1 °F 24.4 °F 29.64 in North 7.1 mph 14.0 mph 93 % 0.02 in
05:34 26.1 °F 24.4 °F 29.64 in NNE 8.3 mph 13.8 mph 93 % 0.02 in
05:39 26.1 °F 24.4 °F 29.64 in NNE 7.1 mph 10.4 mph 93 % 0.03 in
05:42 26.2 °F 24.5 °F 29.64 in North 6.9 mph 12.7 mph 93 % 0.03 in
05:46 26.2 °F 24.5 °F 29.63 in ENE 8.4 mph 11.5 mph 93 % 0.03 in
05:47 26.2 °F 24.5 °F 29.63 in NE 8.1 mph 13.8 mph 93 % 0.03 in
05:52 26.3 °F 24.6 °F 29.62 in NNE 6.5 mph 11.5 mph 93 % 0.04 in
05:54 26.2 °F 24.5 °F 29.63 in North 7.3 mph 13.0 mph 93 % 0.04 in
05:59 26.2 °F 24.5 °F 29.62 in NE 4.6 mph 13.8 mph 93 % 0.03 in
06:04 26.3 °F 24.6 °F 29.62 in North 5.7 mph 11.5 mph 93 % 0.04 in
06:06 26.3 °F 24.6 °F 29.62 in North 4.1 mph 11.5 mph 93 % 0.04 in
06:08 26.3 °F 24.6 °F 29.60 in North 3.0 mph 3.5 mph 93 % 0.04 in
06:13 26.3 °F 24.6 °F 29.59 in North 8.9 mph 16.1 mph 93 % 0.04 in
06:16 26.4 °F 24.7 °F 29.59 in NNE 4.9 mph 8.1 mph 93 % 0.05 in
06:21 26.4 °F 24.7 °F 29.58 in NNW 8.3 mph 13.8 mph 93 % 0.05 in
06:22 26.4 °F 24.7 °F 29.58 in NNE 7.9 mph 13.8 mph 93 % 0.05 in
06:27 26.5 °F 24.8 °F 29.57 in North 11.9 mph 18.4 mph 93 % 0.05 in
06:30 26.5 °F 25.0 °F 29.56 in North 11.7 mph 23.0 mph 94 % 0.05 in
06:35 26.5 °F 24.8 °F 29.56 in NNE 10.3 mph 17.3 mph 93 % 0.05 in
06:37 26.5 °F 24.8 °F 29.56 in North 11.3 mph 21.9 mph 93 % 0.05 in
06:42 26.6 °F 25.1 °F 29.55 in NE 10.9 mph 25.3 mph 94 % 0.05 in
06:46 26.6 °F 25.1 °F 29.55 in NNE 13.3 mph 23.0 mph 94 % 0.05 in
06:50 26.5 °F 25.0 °F 29.54 in NE 16.3 mph 26.5 mph 94 % 0.06 in
06:51 26.5 °F 25.0 °F 29.54 in NNE 16.7 mph 25.3 mph 94 % 0.06 in
06:56 26.5 °F 25.0 °F 29.53 in North 14.8 mph 18.4 mph 94 % 0.05 in
06:58 26.6 °F 25.1 °F 29.53 in NE 14.0 mph 18.4 mph 94 % 0.05 in
07:03 26.6 °F 25.1 °F 29.53 in NNE 16.1 mph 17.3 mph 94 % 0.06 in
07:08 26.7 °F 25.2 °F 29.53 in NNE 17.6 mph 27.6 mph 94 % 0.05 in
07:11 26.7 °F 25.2 °F 29.53 in North 16.7 mph 23.0 mph 94 % 0.05 in
07:17 26.8 °F 25.3 °F 29.53 in North 13.8 mph 25.0 mph 94 % 0.05 in
07:22 26.8 °F 25.3 °F 29.52 in North 13.2 mph 25.0 mph 94 % 0.05 in
07:27 26.7 °F 25.2 °F 29.51 in NNE 12.9 mph 29.9 mph 94 % 0.05 in
07:30 26.7 °F 25.2 °F 29.51 in North 19.1 mph 26.5 mph 94 % 0.05 in
07:35 26.8 °F 25.6 °F 29.50 in NE 17.6 mph 25.3 mph 95 % 0.05 in
07:36 26.8 °F 25.6 °F 29.50 in NNE 18.2 mph 26.0 mph 95 % 0.06 in
07:42 26.9 °F 25.7 °F 29.49 in North 11.8 mph 19.6 mph 95 % 0.05 in
07:47 27.0 °F 25.8 °F 29.49 in NE 14.9 mph 24.2 mph 95 % 0.06 in
07:48 27.0 °F 25.8 °F 29.49 in North 14.1 mph 29.0 mph 95 % 0.06 in
07:49 27.0 °F 25.8 °F 29.24 in NNE 16.6 mph 28.8 mph 95 % 0.06 in
07:53 27.0 °F 25.8 °F 29.48 in NNW 14.0 mph 26.5 mph 95 % 0.06 in
07:58 26.9 °F 25.7 °F 29.48 in North 12.8 mph 24.2 mph 95 % 0.06 in
07:59 26.9 °F 25.7 °F 29.48 in NW 12.5 mph 19.6 mph 95 % 0.06 in
08:03 27.0 °F 25.8 °F 29.47 in NNE 12.7 mph 24.2 mph 95 % 0.06 in
08:08 27.0 °F 25.8 °F 29.47 in NNW 13.2 mph 22.0 mph 95 % 0.06 in
08:11 27.0 °F 25.8 °F 29.47 in NNE 13.9 mph 23.0 mph 95 % 0.06 in
08:16 27.0 °F 25.8 °F 29.47 in NNE 16.0 mph 30.0 mph 95 % 0.00 in
08:20 27.0 °F 25.8 °F 29.47 in NNE 10.3 mph 21.9 mph 95 % 0.06 in
08:24 27.0 °F 25.8 °F 29.48 in NNW 16.8 mph 26.5 mph 95 % 0.07 in
08:28 27.0 °F 25.8 °F 29.48 in North 16.3 mph 23.0 mph 95 % 0.06 in
08:34 27.2 °F 26.0 °F 29.47 in NNE 12.8 mph 26.5 mph 95 % 0.07 in
08:36 27.2 °F 26.0 °F 29.46 in NE 16.8 mph 22.0 mph 95 % 0.06 in
08:41 27.3 °F 26.1 °F 29.46 in NNW 12.4 mph 20.7 mph 95 % 0.07 in
08:47 27.3 °F 26.1 °F 29.45 in North 14.0 mph 23.0 mph 95 % 0.07 in
08:52 27.2 °F 26.2 °F 29.44 in North 13.7 mph 18.4 mph 96 % 0.07 in
08:55 27.3 °F 26.3 °F 29.44 in North 12.5 mph 26.5 mph 96 % 0.07 in
09:01 27.3 °F 26.3 °F 29.44 in NE 12.9 mph 19.6 mph 96 % 0.08 in
09:03 27.2 °F 26.2 °F 29.43 in North 16.9 mph 26.5 mph 96 % 0.08 in
09:08 27.1 °F 26.1 °F 29.43 in NNW 13.9 mph 24.2 mph 96 % 0.09 in
09:09 27.1 °F 26.1 °F 29.43 in NNE 13.9 mph 23.0 mph 96 % 0.09 in
09:14 27.0 °F 26.0 °F 29.42 in North 11.3 mph 21.9 mph 96 % 0.09 in
09:18 26.9 °F 25.9 °F 29.40 in NNE 13.2 mph 26.5 mph 96 % 0.09 in
09:23 26.9 °F 25.9 °F 29.40 in North 17.1 mph 25.3 mph 96 % 0.10 in
09:24 26.8 °F 25.8 °F 29.40 in North 17.3 mph 25.3 mph 96 % 0.10 in
09:26 26.8 °F 25.8 °F 29.40 in NE 15.9 mph 26.5 mph 96 % 0.10 in
09:30 26.8 °F 25.8 °F 29.40 in NNW 15.0 mph 24.0 mph 96 % 0.11 in
09:35 26.6 °F 25.6 °F 29.39 in NNE 16.5 mph 29.0 mph 96 % 0.11 in
09:39 26.5 °F 25.5 °F 29.39 in NNE 18.7 mph 25.0 mph 96 % 0.12 in
09:44 26.3 °F 25.3 °F 29.38 in NNW 22.8 mph 24.2 mph 96 % 0.11 in
09:48 26.2 °F 25.0 °F 29.13 in NNE 11.8 mph 27.0 mph 95 % 0.11 in
09:49 26.2 °F 25.0 °F 29.37 in North 16.5 mph 26.5 mph 95 % 0.11 in
09:53 26.1 °F 25.1 °F 29.37 in NNW 16.1 mph 29.9 mph 96 % 0.11 in
09:58 26.0 °F 25.0 °F 29.36 in North 18.5 mph 25.3 mph 96 % 0.11 in
10:00 25.9 °F 24.9 °F 29.37 in North 15.2 mph 29.9 mph 96 % 0.11 in
10:03 25.9 °F 24.9 °F 29.37 in North 19.0 mph 26.5 mph 96 % 0.11 in
10:08 25.7 °F 24.7 °F 29.36 in NNE 18.2 mph 26.5 mph 96 % 0.11 in
10:13 25.6 °F 24.4 °F 29.35 in NE 17.8 mph 31.1 mph 95 % 0.11 in
10:19 25.6 °F 24.4 °F 29.35 in North 16.8 mph 32.2 mph 95 % 0.11 in
10:22 25.5 °F 24.3 °F 29.35 in NNE 15.2 mph 26.5 mph 95 % 0.10 in
10:27 25.5 °F 24.5 °F 29.35 in NNE 17.7 mph 26.5 mph 96 % 0.10 in
10:29 25.5 °F 24.5 °F 29.35 in NNW 15.0 mph 29.9 mph 96 % 0.10 in
10:32 25.5 °F 24.5 °F 29.35 in NNW 18.7 mph 27.0 mph 96 % 0.10 in
10:35 25.4 °F 24.4 °F 29.35 in North 13.4 mph 25.3 mph 96 % 0.09 in
10:40 25.4 °F 24.4 °F 29.34 in NNE 15.4 mph 29.9 mph 96 % 0.08 in
10:45 25.4 °F 24.4 °F 29.33 in NW 13.0 mph 28.8 mph 96 % 0.08 in
10:50 25.4 °F 24.4 °F 29.31 in North 11.4 mph 19.6 mph 96 % 0.07 in
10:52 25.4 °F 24.4 °F 29.31 in NW 14.4 mph 23.0 mph 96 % 0.08 in
10:53 25.4 °F 24.4 °F 29.31 in North 16.2 mph 23.0 mph 96 % 0.08 in
10:54 25.3 °F 24.3 °F 29.32 in NNW 13.2 mph 20.7 mph 96 % 0.08 in
10:59 25.3 °F 24.3 °F 29.31 in North 16.2 mph 32.0 mph 96 % 0.07 in
11:00 25.3 °F 24.3 °F 29.31 in North 14.4 mph 26.5 mph 96 % 0.07 in
11:05 25.3 °F 24.3 °F 29.31 in NNW 11.0 mph 24.2 mph 96 % 0.07 in
11:11 25.4 °F 24.4 °F 29.30 in North 14.7 mph 25.3 mph 96 % 0.07 in
11:16 25.4 °F 24.4 °F 29.28 in North 16.2 mph 25.3 mph 96 % 0.07 in
11:18 25.5 °F 24.5 °F 29.28 in NNW 9.9 mph 20.7 mph 96 % 0.07 in
11:20 25.5 °F 24.5 °F 29.28 in NNE 12.1 mph 27.6 mph 96 % 0.07 in
11:22 25.5 °F 24.5 °F 29.03 in North 10.6 mph 19.6 mph 96 % 0.06 in
11:26 25.6 °F 24.6 °F 29.27 in North 17.0 mph 35.0 mph 96 % 0.00 in
11:31 25.7 °F 24.7 °F 29.27 in NNE 10.4 mph 19.6 mph 96 % 0.07 in
11:32 25.7 °F 24.7 °F 29.26 in NNW 12.8 mph 23.0 mph 96 % 0.06 in
11:33 25.7 °F 24.7 °F 29.26 in North 12.5 mph 18.0 mph 96 % 0.06 in
11:37 25.8 °F 24.8 °F 29.26 in NNE 8.6 mph 15.0 mph 96 % 0.07 in
11:38 25.8 °F 24.8 °F 29.26 in NW 10.0 mph 28.8 mph 96 % 0.07 in
11:42 25.8 °F 24.8 °F 29.25 in NNE 11.5 mph 18.4 mph 96 % 0.06 in
11:47 25.9 °F 24.9 °F 29.24 in NNW 8.6 mph 20.7 mph 96 % 0.07 in
11:52 25.9 °F 24.9 °F 29.23 in NNE 11.7 mph 19.6 mph 96 % 0.06 in
11:57 25.8 °F 24.8 °F 29.24 in North 12.8 mph 25.0 mph 96 % 0.07 in
11:58 25.8 °F 24.8 °F 28.99 in NNW 15.8 mph 27.6 mph 96 % 0.07 in
12:02 25.7 °F 24.7 °F 29.24 in North 14.5 mph 21.9 mph 96 % 0.06 in
12:06 25.5 °F 24.5 °F 29.23 in NNE 16.2 mph 25.3 mph 96 % 0.07 in
12:11 25.3 °F 24.3 °F 29.23 in NNW 11.1 mph 20.7 mph 96 % 0.06 in
12:17 25.2 °F 24.2 °F 29.21 in NE 14.5 mph 25.3 mph 96 % 0.06 in
12:22 25.1 °F 24.1 °F 29.20 in NNW 18.0 mph 26.5 mph 96 % 0.06 in
12:26 25.1 °F 24.1 °F 29.21 in NNW 12.7 mph 33.4 mph 96 % 0.05 in
12:27 25.1 °F 24.1 °F 29.20 in NNE 14.5 mph 33.4 mph 96 % 0.05 in
12:28 25.1 °F 24.1 °F 29.20 in NNW 16.9 mph 20.7 mph 96 % 0.05 in
12:33 25.1 °F 24.1 °F 29.19 in NNW 14.2 mph 24.2 mph 96 % 0.06 in
12:37 25.1 °F 24.1 °F 29.19 in NNW 10.9 mph 20.7 mph 96 % 0.05 in
12:42 25.2 °F 24.2 °F 29.18 in NNW 9.3 mph 27.6 mph 96 % 0.05 in
12:47 25.2 °F 24.2 °F 29.18 in North 9.8 mph 19.6 mph 96 % 0.04 in
12:52 25.2 °F 24.2 °F 29.18 in NNE 10.2 mph 17.3 mph 96 % 0.05 in
12:55 25.2 °F 24.2 °F 29.18 in NW 12.0 mph 17.0 mph 96 % 0.04 in
12:56 25.2 °F 24.2 °F 29.17 in NNW 12.0 mph 26.5 mph 96 % 0.04 in
13:01 25.2 °F 24.2 °F 29.17 in NW 15.7 mph 20.0 mph 96 % 0.04 in
13:02 25.2 °F 24.2 °F 29.17 in NE 14.1 mph 26.5 mph 96 % 0.04 in
13:07 25.1 °F 24.1 °F 29.17 in NNE 10.6 mph 25.3 mph 96 % 0.03 in
13:13 25.1 °F 23.9 °F 29.18 in NW 16.5 mph 29.9 mph 95 % 0.03 in
13:18 25.1 °F 24.1 °F 29.17 in North 12.6 mph 24.2 mph 96 % 0.03 in
13:19 25.1 °F 24.1 °F 29.17 in NW 11.6 mph 25.3 mph 96 % 0.03 in
13:24 25.1 °F 24.1 °F 29.17 in North 13.0 mph 21.9 mph 96 % 0.03 in
13:25 25.1 °F 24.1 °F 29.17 in NW 11.6 mph 20.7 mph 96 % 0.03 in
13:30 25.1 °F 24.1 °F 29.17 in NW 9.9 mph 19.0 mph 96 % 0.03 in
13:33 25.1 °F 24.1 °F 29.17 in NNW 15.8 mph 24.2 mph 96 % 0.02 in
13:38 25.0 °F 24.0 °F 29.16 in North 9.8 mph 19.6 mph 96 % 0.02 in
13:43 24.9 °F 23.9 °F 29.16 in NW 11.0 mph 20.7 mph 96 % 0.02 in
13:48 24.9 °F 23.7 °F 29.17 in NNW 11.8 mph 25.3 mph 95 % 0.02 in
13:52 24.9 °F 23.9 °F 29.17 in North 11.1 mph 17.3 mph 96 % 0.01 in
14:01 24.7 °F 23.7 °F 29.16 in NW 11.8 mph 23.0 mph 96 % 0.01 in
14:07 24.6 °F 23.6 °F 29.17 in NNW 11.2 mph 18.0 mph 96 % 0.02 in
14:12 24.5 °F 23.5 °F 29.16 in NNW 11.7 mph 23.0 mph 96 % 0.02 in
14:15 24.4 °F 23.2 °F 29.17 in WNW 13.8 mph 23.0 mph 95 % 0.01 in
14:18 24.3 °F 23.1 °F 29.17 in NW 9.7 mph 27.6 mph 95 % 0.01 in
14:22 24.3 °F 23.1 °F 29.17 in WNW 14.0 mph 26.5 mph 95 % 0.01 in
14:27 24.2 °F 23.0 °F 29.18 in NNW 12.6 mph 28.8 mph 95 % 0.01 in
14:28 24.2 °F 23.0 °F 29.18 in North 14.0 mph 26.5 mph 95 % 0.01 in
14:29 24.1 °F 22.9 °F 28.93 in North 11.6 mph 26.5 mph 95 % 0.01 in
14:33 24.0 °F 22.8 °F 29.18 in NNW 13.4 mph 24.2 mph 95 % 0.01 in
14:36 24.0 °F 22.8 °F 29.18 in NNW 10.0 mph 30.0 mph 95 % 0.00 in
14:41 24.0 °F 22.8 °F 29.19 in WNW 9.9 mph 21.9 mph 95 % 0.01 in
14:43 24.0 °F 22.8 °F 29.18 in WNW 13.7 mph 21.0 mph 95 % 0.01 in
14:49 24.0 °F 22.8 °F 29.19 in WNW 13.6 mph 21.9 mph 95 % 0.01 in
14:54 24.1 °F 22.9 °F 29.19 in NNW 11.6 mph 24.2 mph 95 % 0.01 in
14:59 24.1 °F 23.1 °F 29.19 in NW 9.4 mph 20.0 mph 96 % 0.01 in
15:04 24.2 °F 23.2 °F 29.21 in NW 8.9 mph 22.0 mph 96 % 0.01 in
15:09 24.2 °F 23.2 °F 29.20 in NNW 10.5 mph 31.1 mph 96 % 0.00 in
15:14 24.1 °F 22.9 °F 29.21 in NNW 10.3 mph 17.0 mph 95 % 0.00 in
15:17 24.1 °F 22.9 °F 29.21 in NNW 13.1 mph 26.5 mph 95 % 0.00 in
15:23 24.0 °F 22.8 °F 29.21 in NNE 11.7 mph 23.0 mph 95 % 0.00 in
15:25 24.0 °F 22.8 °F 29.21 in NNW 10.7 mph 21.9 mph 95 % 0.00 in
15:30 24.0 °F 22.8 °F 29.22 in NW 12.7 mph 21.9 mph 95 % 0.00 in
15:36 23.9 °F 22.7 °F 29.22 in NNW 8.8 mph 24.0 mph 95 % 0.00 in
15:43 23.9 °F 22.7 °F 29.22 in NW 12.7 mph 19.6 mph 95 % 0.00 in
15:49 23.9 °F 22.7 °F 29.23 in NW 12.0 mph 24.0 mph 95 % 0.00 in
15:54 23.9 °F 22.7 °F 29.23 in NNW 11.0 mph 19.6 mph 95 % 0.00 in
15:58 23.9 °F 22.7 °F 29.23 in NNW 12.0 mph 21.9 mph 95 % 0.00 in
16:04 24.0 °F 22.8 °F 29.24 in NW 12.8 mph 23.0 mph 95 % 0.00 in
16:06 24.0 °F 22.8 °F 28.99 in North 11.9 mph 23.0 mph 95 % 0.00 in
16:16 24.2 °F 23.2 °F 29.25 in NNW 6.9 mph 25.3 mph 96 % 0.00 in
16:19 24.3 °F 23.3 °F 29.00 in WNW 8.2 mph 28.8 mph 96 % 0.00 in
16:25 24.5 °F 23.5 °F 29.25 in NW 11.0 mph 23.0 mph 96 % 0.00 in
16:27 24.5 °F 23.5 °F 29.25 in NW 10.0 mph 21.9 mph 96 % 0.00 in
16:28 24.5 °F 23.5 °F 29.25 in NW 10.4 mph 17.3 mph 96 % 0.00 in
16:32 24.6 °F 23.6 °F 29.00 in NNW 9.3 mph 23.0 mph 96 % 0.00 in
16:34 24.7 °F 23.7 °F 29.25 in North 8.1 mph 18.4 mph 96 % 0.00 in
16:36 24.7 °F 23.7 °F 29.00 in WNW 12.3 mph 21.9 mph 96 % 0.00 in
16:41 24.7 °F 23.7 °F 29.25 in NW 8.1 mph 20.7 mph 96 % 0.00 in
16:43 24.7 °F 23.5 °F 29.01 in NW 8.8 mph 26.5 mph 95 % 0.00 in
16:44 24.7 °F 23.5 °F 29.01 in NNW 11.7 mph 22.0 mph 95 % 0.00 in
16:46 24.7 °F 23.7 °F 29.26 in NW 13.1 mph 26.0 mph 96 % 0.00 in
16:47 24.7 °F 23.5 °F 29.01 in NW 15.2 mph 26.5 mph 95 % 0.00 in
16:48 24.7 °F 23.5 °F 29.26 in WSW 10.1 mph 20.7 mph 95 % 0.00 in
16:50 24.7 °F 23.5 °F 29.26 in NNW 9.9 mph 17.3 mph 95 % 0.00 in
16:51 24.7 °F 23.5 °F 29.26 in NW 8.1 mph 18.4 mph 95 % 0.00 in
16:52 24.7 °F 23.5 °F 29.26 in North 12.2 mph 18.4 mph 95 % 0.00 in
16:56 24.7 °F 23.8 °F 29.26 in NW 9.0 mph 20.0 mph 96 % 0.00 in
17:01 24.8 °F 23.8 °F 29.02 in WSW 15.8 mph 17.3 mph 96 % 0.00 in
17:02 24.9 °F 23.9 °F 29.26 in NW 8.3 mph 15.0 mph 96 % 0.00 in
17:07 25.0 °F 24.0 °F 29.27 in NW 7.3 mph 19.6 mph 96 % 0.00 in
17:08 25.0 °F 24.0 °F 29.27 in NW 8.0 mph 20.0 mph 96 % 0.00 in
17:13 25.1 °F 24.1 °F 29.27 in NNW 10.4 mph 18.4 mph 96 % 0.00 in
17:18 25.1 °F 24.1 °F 29.27 in WNW 8.2 mph 19.6 mph 96 % 0.00 in
17:23 25.1 °F 24.1 °F 29.27 in WNW 11.5 mph 19.6 mph 96 % 0.00 in
17:28 25.1 °F 24.1 °F 29.28 in West 11.9 mph 24.2 mph 96 % 0.00 in
17:29 25.1 °F 24.1 °F 29.28 in West 7.1 mph 24.2 mph 96 % 0.00 in
17:34 25.1 °F 24.1 °F 29.28 in WNW 10.0 mph 23.0 mph 96 % 0.00 in
17:39 25.1 °F 24.1 °F 29.28 in NW 11.8 mph 24.2 mph 96 % 0.00 in
17:45 25.1 °F 24.1 °F 29.29 in West 14.5 mph 25.0 mph 96 % 0.00 in
17:50 25.0 °F 24.0 °F 29.29 in West 14.0 mph 21.9 mph 96 % 0.00 in
17:55 25.0 °F 24.0 °F 29.29 in WNW 10.5 mph 26.5 mph 96 % 0.00 in
18:06 24.9 °F 23.9 °F 29.31 in NW 10.6 mph 18.4 mph 96 % 0.00 in
18:07 24.9 °F 23.9 °F 29.30 in NNW 10.7 mph 19.6 mph 96 % 0.00 in
18:12 24.9 °F 23.7 °F 29.30 in WNW 9.9 mph 20.7 mph 95 % 0.00 in
18:15 24.9 °F 23.7 °F 29.31 in West 9.5 mph 23.0 mph 95 % 0.00 in
18:20 24.9 °F 23.9 °F 29.31 in WNW 8.8 mph 16.1 mph 96 % 0.00 in
18:22 24.8 °F 23.6 °F 29.31 in West 11.1 mph 21.9 mph 95 % 0.00 in
18:27 24.8 °F 23.8 °F 29.31 in WNW 13.0 mph 21.9 mph 96 % 0.00 in
18:28 24.8 °F 23.8 °F 29.32 in NNW 10.2 mph 21.9 mph 96 % 0.00 in
18:33 24.7 °F 23.5 °F 29.32 in West 8.0 mph 17.3 mph 95 % 0.00 in
18:39 24.6 °F 23.4 °F 29.32 in WNW 9.1 mph 17.3 mph 95 % 0.00 in
18:43 24.6 °F 23.4 °F 29.33 in WSW 8.1 mph 19.6 mph 95 % 0.00 in
18:48 24.5 °F 23.3 °F 29.33 in West 8.8 mph 21.9 mph 95 % 0.00 in
18:51 24.5 °F 23.3 °F 29.33 in WNW 8.8 mph 17.0 mph 95 % 0.00 in
18:56 24.5 °F 23.3 °F 29.34 in West 13.4 mph 21.9 mph 95 % 0.00 in
19:02 24.4 °F 23.2 °F 29.34 in SW 13.2 mph 23.0 mph 95 % 0.00 in
19:04 24.4 °F 23.2 °F 29.34 in West 9.4 mph 18.0 mph 95 % 0.00 in
19:10 24.3 °F 23.1 °F 29.34 in West 8.5 mph 18.4 mph 95 % 0.00 in
19:15 24.3 °F 23.1 °F 29.35 in NW 11.3 mph 20.7 mph 95 % 0.00 in
19:20 24.3 °F 23.1 °F 29.35 in WNW 10.9 mph 21.9 mph 95 % 0.00 in
19:25 24.2 °F 23.0 °F 29.35 in WSW 10.6 mph 16.1 mph 95 % 0.00 in
19:30 24.2 °F 23.0 °F 29.36 in NW 12.3 mph 16.1 mph 95 % 0.00 in
19:35 24.2 °F 23.0 °F 29.37 in NW 11.0 mph 18.4 mph 95 % 0.00 in
19:40 24.2 °F 23.0 °F 29.36 in West 6.1 mph 12.0 mph 95 % 0.00 in
19:45 24.2 °F 23.0 °F 29.36 in NW 5.5 mph 13.8 mph 95 % 0.00 in
19:50 24.2 °F 23.0 °F 29.37 in WSW 12.5 mph 21.9 mph 95 % 0.00 in
19:55 24.2 °F 23.0 °F 29.38 in WNW 13.2 mph 19.6 mph 95 % 0.00 in
19:57 24.2 °F 23.0 °F 29.38 in WNW 11.7 mph 17.0 mph 95 % 0.00 in
20:02 24.1 °F 22.9 °F 29.39 in WNW 7.7 mph 18.4 mph 95 % 0.00 in
20:07 24.0 °F 22.8 °F 29.39 in NNW 6.9 mph 17.3 mph 95 % 0.00 in
20:11 24.0 °F 22.8 °F 29.39 in WNW 14.0 mph 23.0 mph 95 % 0.00 in
20:16 24.0 °F 22.8 °F 29.39 in WNW 15.6 mph 26.5 mph 95 % 0.00 in
20:20 24.0 °F 22.5 °F 29.40 in NW 10.1 mph 19.6 mph 94 % 0.00 in
20:23 23.9 °F 22.4 °F 29.40 in WSW 14.6 mph 19.6 mph 94 % 0.00 in
20:29 23.9 °F 22.4 °F 29.40 in West 9.7 mph 16.1 mph 94 % 0.00 in
20:34 23.8 °F 22.3 °F 29.40 in North 12.8 mph 28.8 mph 94 % 0.00 in
20:35 23.8 °F 22.3 °F 29.41 in SW 11.1 mph 21.0 mph 94 % 0.00 in
20:41 23.7 °F 22.2 °F 29.41 in WNW 14.0 mph 29.0 mph 94 % 0.00 in
20:42 23.7 °F 22.2 °F 29.41 in NW 11.4 mph 16.1 mph 94 % 0.00 in
20:48 23.6 °F 22.1 °F 29.41 in North 9.7 mph 17.3 mph 94 % 0.00 in
20:50 23.6 °F 22.1 °F 29.41 in WNW 7.3 mph 17.3 mph 94 % 0.00 in
20:55 23.6 °F 22.1 °F 29.42 in West 11.5 mph 20.7 mph 94 % 0.00 in
21:01 23.5 °F 22.0 °F 29.42 in NW 9.0 mph 17.3 mph 94 % 0.00 in
21:04 23.6 °F 22.1 °F 29.42 in West 9.9 mph 18.4 mph 94 % 0.00 in
21:10 23.5 °F 22.0 °F 29.42 in West 12.0 mph 20.7 mph 94 % 0.00 in
21:12 23.4 °F 21.9 °F 29.43 in WNW 8.6 mph 14.0 mph 94 % 0.00 in
21:17 23.2 °F 21.5 °F 29.43 in WNW 11.2 mph 21.0 mph 93 % 0.00 in
21:20 23.1 °F 21.6 °F 29.43 in NW 9.5 mph 19.0 mph 94 % 0.00 in
21:25 22.9 °F 21.2 °F 29.44 in West 8.3 mph 16.1 mph 93 % 0.00 in
21:28 22.8 °F 21.1 °F 29.44 in WSW 10.4 mph 18.4 mph 93 % 0.00 in
21:33 22.6 °F 20.9 °F 29.45 in WNW 10.3 mph 18.4 mph 93 % 0.00 in
21:38 22.5 °F 20.8 °F 29.45 in WNW 9.0 mph 11.5 mph 93 % 0.00 in
21:39 22.5 °F 20.8 °F 29.45 in WSW 8.5 mph 19.6 mph 93 % 0.00 in
21:44 22.3 °F 20.6 °F 29.45 in West 7.1 mph 11.0 mph 93 % 0.00 in
21:49 22.2 °F 20.5 °F 29.46 in West 9.6 mph 16.0 mph 93 % 0.00 in
21:54 22.0 °F 20.3 °F 29.46 in WSW 12.1 mph 19.6 mph 93 % 0.00 in
21:59 21.8 °F 20.1 °F 29.46 in WNW 6.3 mph 13.8 mph 93 % 0.00 in
22:00 21.9 °F 20.2 °F 29.46 in West 6.1 mph 13.8 mph 93 % 0.00 in
22:05 21.7 °F 20.0 °F 29.46 in WNW 11.0 mph 19.6 mph 93 % 0.00 in
22:07 21.7 °F 20.0 °F 29.46 in WNW 12.9 mph 19.6 mph 93 % 0.00 in
22:12 21.5 °F 19.8 °F 29.46 in SW 10.2 mph 17.3 mph 93 % 0.00 in
22:14 21.5 °F 19.8 °F 29.46 in NNW 12.1 mph 19.6 mph 93 % 0.00 in
22:18 21.4 °F 19.7 °F 29.46 in West 7.2 mph 13.8 mph 93 % 0.00 in
22:23 21.3 °F 19.6 °F 29.46 in NW 8.5 mph 17.0 mph 93 % 0.00 in
22:24 21.3 °F 19.6 °F 29.47 in NW 9.2 mph 19.6 mph 93 % 0.00 in
22:26 21.3 °F 19.6 °F 29.47 in SW 12.2 mph 26.5 mph 93 % 0.00 in
22:31 21.3 °F 19.6 °F 29.47 in WNW 5.1 mph 13.0 mph 93 % 0.00 in
22:33 21.3 °F 19.6 °F 29.47 in WNW 11.8 mph 18.4 mph 93 % 0.00 in
22:38 21.3 °F 19.6 °F 29.47 in NW 8.4 mph 20.7 mph 93 % 0.00 in
22:41 21.2 °F 19.5 °F 29.48 in WNW 9.8 mph 17.3 mph 93 % 0.00 in
22:46 21.3 °F 19.6 °F 29.47 in West 9.7 mph 19.0 mph 93 % 0.00 in
22:47 21.2 °F 19.5 °F 29.48 in WNW 9.3 mph 19.6 mph 93 % 0.00 in
22:52 21.2 °F 19.5 °F 29.47 in NW 10.6 mph 16.1 mph 93 % 0.00 in
22:57 21.1 °F 19.4 °F 29.48 in WNW 7.3 mph 21.9 mph 93 % 0.00 in
23:02 21.0 °F 19.3 °F 29.47 in West 10.3 mph 20.7 mph 93 % 0.00 in
23:05 21.0 °F 19.0 °F 29.48 in WNW 12.2 mph 19.6 mph 92 % 0.00 in
23:10 20.8 °F 18.8 °F 29.48 in WNW 6.2 mph 12.7 mph 92 % 0.00 in
23:15 20.7 °F 18.7 °F 29.48 in West 7.7 mph 20.7 mph 92 % 0.00 in
23:20 20.6 °F 18.6 °F 29.48 in WNW 11.6 mph 24.2 mph 92 % 0.00 in
23:25 20.4 °F 18.4 °F 29.48 in West 10.0 mph 20.7 mph 92 % 0.00 in
23:27 20.4 °F 18.4 °F 29.48 in West 13.4 mph 24.2 mph 92 % 0.00 in
23:32 20.3 °F 18.3 °F 29.48 in West 10.7 mph 19.6 mph 92 % 0.00 in
23:33 20.3 °F 18.3 °F 29.49 in WNW 12.0 mph 21.9 mph 92 % 0.00 in
23:38 20.2 °F 18.2 °F 29.49 in NW 11.2 mph 21.9 mph 92 % 0.00 in
23:42 20.1 °F 18.1 °F 29.49 in West 10.2 mph 19.0 mph 92 % 0.00 in
23:47 20.0 °F 18.1 °F 29.49 in NNW 9.9 mph 17.3 mph 92 % 0.00 in
23:52 19.9 °F 18.0 °F 29.49 in West 12.8 mph 21.9 mph 92 % 0.00 in
23:56 19.8 °F 17.9 °F 29.49 in NW 10.9 mph 16.1 mph 92 % 0.00 in
Crab Meadow Weather
Compliments of Weather Underground - 3.5 mb

Script developed by  Jim McMurry - jmcmurry@mwt.net Adapted for the template by  Wim van der Kuil - Leuven-Template.eu

Weather Terms: Degree Day - Gauges the amount of heating or cooling needed for a building using 65 degrees as a baseline. To compute degree days, the average temperature for a day is taken and referenced to 65. An average temperature of 50 yields 15 heating degree days, while an average temperature of 75 would yield 10 cooling degree days.